This is the latest recevied weather packets stored in our database for station/object WA4OPQ-3. If no packets are shown the sender has not sent any weather packets the latest 10 day(s).
| Time | Temp. | Humidity | Pressure | Rain* | Wind** | Luminosity | Snow |
|---|---|---|---|---|---|---|---|
| 1777534273 | 11.11° C | 98% | 1013.8 hPa | 0 mm | - | 0 W/m² | - |
| 1777533667 | 11.11° C | 98% | 1014 hPa | 0 mm | - | 0 W/m² | - |
| 1777533062 | 11.67° C | 99% | 1013.7 hPa | 0 mm | - | 0 W/m² | - |
| 1777532457 | 11.67° C | 99% | 1013.6 hPa | 0 mm | - | 0 W/m² | - |
| 1777531853 | 11.67° C | 99% | 1013.6 hPa | 0 mm | - | 0 W/m² | - |
| 1777531247 | 12.22° C | 99% | 1013.7 hPa | 0 mm | - | 0 W/m² | - |
| 1777530642 | 12.22° C | 99% | 1013.8 hPa | 0 mm | - | 0 W/m² | - |
| 1777530037 | 12.22° C | 99% | 1013.7 hPa | 0 mm | - | 0 W/m² | - |
| 1777529432 | 12.22° C | 98% | 1014.2 hPa | 0 mm | - | 0 W/m² | - |
| 1777528826 | 12.78° C | 98% | 1014.4 hPa | 0 mm | - | 0 W/m² | - |
| 1777528221 | 12.78° C | 98% | 1014.1 hPa | 0 mm | - | 0 W/m² | - |
| 1777527615 | 13.33° C | 97% | 1014.1 hPa | 0 mm | - | 0 W/m² | - |
| 1777527011 | 13.33° C | 97% | 1014.3 hPa | 0 mm | - | 0 W/m² | - |
| 1777526407 | 13.89° C | 96% | 1014.5 hPa | 0 mm | - | 0 W/m² | - |
| 1777525800 | 13.89° C | 95% | 1014.3 hPa | 0 mm | - | 0 W/m² | - |
| 1777525195 | 14.44° C | 94% | 1014.3 hPa | 0 mm | - | 0 W/m² | - |
| 1777524589 | 14.44° C | 94% | 1014.3 hPa | 0 mm | - | 0 W/m² | - |
| 1777523985 | 14.44° C | 93% | 1014.2 hPa | 0 mm | - | 0 W/m² | - |
| 1777523378 | 14.44° C | 92% | 1014.2 hPa | 0 mm | - | 0 W/m² | - |
| 1777522773 | 15° C | 90% | 1013.9 hPa | 0 mm | - | 0 W/m² | - |
| 1777522168 | 15° C | 89% | 1013.8 hPa | 0 mm | - | 0 W/m² | - |
| 1777521562 | 14.44° C | 93% | 1013.2 hPa | 0 mm | - | 0 W/m² | - |
| 1777520958 | 14.44° C | 99% | 1013.4 hPa | 0 mm | - | 0 W/m² | - |
| 1777520353 | 14.44° C | 99% | 1014 hPa | 0 mm | - | 0 W/m² | - |
| 1777519748 | 14.44° C | 99% | 1014.3 hPa | 0 mm | - | 0 W/m² | - |
* Rain latest hour (hover to see other rain measurements)
** Current wind speed in m/s (hover to see current wind gust speed)